Location: Cieszkowy
(50.3290°N, 20.5336°E)
Time: 23:56:27
(UTC+00:00)

SL-16 R/B - Pass Details

Date: 15 June 2024
Orbit: 984 x 1007 km, 99.7° (Epoch: 18 July)

Event Time Altitude Azimuth Distance (km) Brightness Sun altitude
Rises 01:29:36 0° 173° (S) 3,721 5.1 -7.2°
Reaches altitude 10° 01:32:07 10° 176° (S) 2,774 4.5 -7.0°
Maximum altitude 01:38:17 62° 257° (WSW) 1,122 2.7 -6.3°
Drops below altitude 10° 01:44:29 10° 338° (NNW) 2,779 5.3 -5.7°
Sets 01:47:00 0° 342° (NNW) 3,730 6.0 -5.4°
